GW6389 Weather Reports


Display with metric or nautical units.
time (UTC)temp
F
wind
direction
speed
MPH
gust
MPH
rain 1hr
in
rain 24hr
in
rain mn
in
humidity
%
barometer
mb
20260504160208 51 327 12.0 20.0 0.00 0.00 0.00 46 1014.8
20260504151015 50 319 13.0 20.0 0.00 0.00 0.00 54 1014.7
20260504150537 49 304 14.0 21.0 0.00 0.00 0.00 53 1014.9
20260504150201 50 306 14.0 21.0 0.00 0.00 0.00 54 1014.7
20260504141041 49 290 12.0 19.0 0.00 0.00 0.00 53 1014.8
20260504140513 50 311 11.0 16.0 0.00 0.00 0.00 54 1014.7
20260504140205 49 304 10.0 16.0 0.00 0.00 0.00 55 1014.6
20260504130533 46 280 5.0 9.0 0.00 0.00 0.00 56 1014.6
20260504130221 47 275 5.0 10.0 0.00 0.00 0.00 56 1014.7
20260504120253 46 281 7.0 10.0 0.00 0.00 0.00 59 1014.6
20260504110540 46 290 7.0 13.0 0.00 0.00 0.00 63 1014.8
20260504110211 46 286 8.0 13.0 0.00 0.00 0.00 62 1014.6
20260504100526 46 324 11.0 19.0 0.00 0.00 0.00 62 1014.4
20260504100150 46 339 12.0 17.0 0.00 0.00 0.00 62 1014.5
20260504081651 48 48 7.0 16.0 0.00 0.00 0.00 59 1014.2
20260504081031 48 360 7.0 17.0 0.00 0.00 0.00 58 1014.4
20260504080521 48 44 10.0 17.0 0.00 0.00 0.00 57 1014.2
20260504080209 49 19 10.0 16.0 0.00 0.00 0.00 56 1014.1
20260504070212 51 13 13.0 22.0 0.00 0.00 0.00 50 1012.9
20260504060209 54 55 9.0 18.0 0.00 0.00 0.00 38 1011.6
20260504050535 55 31 7.0 17.0 0.00 0.00 0.00 35 1010.5
20260504050119 56 31 9.0 20.0 0.00 0.00 0.00 35 1010.5
20260504045524 56 22 12.0 21.0 0.00 0.00 0.00 35 1010.2
20260504045040 56 36 9.0 22.0 0.00 0.00 0.00 35 1010.1
20260504044643 56 30 12.0 21.0 0.00 0.00 0.00 35 1010.0
20260504044023 56 60 11.0 23.0 0.00 0.00 0.00 35 1009.9
20260504043538 56 54 14.0 24.0 0.00 0.00 0.00 35 1009.7
20260504043142 56 43 14.0 28.0 0.00 0.00 0.00 35 1009.5
20260504042536 57 59 18.0 28.0 0.00 0.00 0.00 34 1009.2
20260504042040 57 49 15.0 23.0 0.00 0.00 0.00 35 1008.9
20260504041652 58 63 15.0 23.0 0.00 0.00 0.00 35 1008.8
20260504041039 59 34 12.0 22.0 0.00 0.00 0.00 36 1008.8
20260504040535 60 30 10.0 15.0 0.00 0.00 0.00 36 1008.3
20260504040135 59 360 4.0 11.0 0.00 0.00 0.00 37 1008.2
20260504035543 59 30 4.0 9.0 0.00 0.00 0.00 37 1008.0
20260504035026 60 15 4.0 10.0 0.00 0.00 0.00 36 1007.9
20260504034653 60 31 4.0 10.0 0.00 0.00 0.00 36 1007.8
20260504034024 60 31 4.0 10.0 0.00 0.00 0.00 35 1007.7
20260504033542 60 360 4.0 9.0 0.00 0.00 0.00 35 1007.8
20260504033059 61 49 4.0 10.0 0.00 0.00 0.00 34 1007.4
20260504032540 61 43 4.0 9.0 0.00 0.00 0.00 34 1007.4
20260504032021 61 31 4.0 12.0 0.00 0.00 0.00 34 1007.6
20260504031623 62 39 7.0 12.0 0.00 0.00 0.00 34 1007.4
20260504031037 62 38 8.0 12.0 0.00 0.00 0.00 33 1007.3
20260504030525 62 27 8.0 12.0 0.00 0.00 0.00 33 1007.3
20260504030135 62 360 6.0 12.0 0.00 0.00 0.00 33 1007.3
20260504025523 62 26 5.0 11.0 0.00 0.00 0.00 33 1007.3
20260504025022 63 38 6.0 12.0 0.00 0.00 0.00 32 1007.1
20260504024622 63 17 6.0 13.0 0.00 0.00 0.00 32 1007.0
20260504024044 64 15 7.0 14.0 0.00 0.00 0.00 31 1006.8
20260504023545 64 13 8.0 14.0 0.00 0.00 0.00 30 1006.9
20260504023148 64 360 7.0 13.0 0.00 0.00 0.00 30 1006.8
20260504022530 65 34 5.0 12.0 0.00 0.00 0.00 29 1006.8
20260504022042 66 46 6.0 15.0 0.00 0.00 0.00 28 1006.8
20260504021637 66 38 8.0 15.0 0.00 0.00 0.00 27 1006.7
20260504021031 67 28 7.0 13.0 0.00 0.00 0.00 27 1006.9
20260504020525 67 22 9.0 17.0 0.00 0.00 0.00 27 1006.7
20260504020159 68 28 9.0 17.0 0.00 0.00 0.00 26 1006.7
20260504015534 69 360 7.0 14.0 0.00 0.00 0.00 25 1006.7
20260504015024 69 360 9.0 14.0 0.00 0.00 0.00 25 1006.7
20260504014648 69 333 7.0 13.0 0.00 0.00 0.00 25 1006.7
20260504014043 70 40 7.0 13.0 0.00 0.00 0.00 25 1006.6
20260504013526 71 319 7.0 13.0 0.00 0.00 0.00 24 1006.5
20260504013153 71 331 9.0 14.0 0.00 0.00 0.00 23 1006.5
20260504012525 72 310 8.0 17.0 0.00 0.00 0.00 22 1006.6
20260504012026 72 324 8.0 15.0 0.00 0.00 0.00 22 1006.6
20260504011655 72 294 7.0 15.0 0.00 0.00 0.00 23 1006.6
20260504011026 72 319 9.0 15.0 0.00 0.00 0.00 23 1006.5
20260504010529 72 290 9.0 15.0 0.00 0.00 0.00 23 1006.7
20260504010202 72 300 11.0 15.0 0.00 0.00 0.00 22 1006.6
20260504005528 73 335 9.0 17.0 0.00 0.00 0.00 22 1006.7
20260504005026 73 306 10.0 18.0 0.00 0.00 0.00 23 1006.8
20260504004627 73 331 12.0 21.0 0.00 0.00 0.00 21 1006.9
20260504004037 73 319 10.0 21.0 0.00 0.00 0.00 22 1006.7
20260504003525 73 307 11.0 22.0 0.00 0.00 0.00 23 1006.9
20260504003149 73 298 13.0 22.0 0.00 0.00 0.00 22 1006.9
20260504002531 73 327 14.0 22.0 0.00 0.00 0.00 21 1006.9
20260504002027 73 321 11.0 19.0 0.00 0.00 0.00 22 1006.9
20260504001640 73 342 14.0 19.0 0.00 0.00 0.00 22 1006.9
20260504001022 73 311 13.0 19.0 0.00 0.00 0.00 21 1007.0
20260504000524 73 300 11.0 21.0 0.00 0.00 0.00 22 1007.1
20260504000158 73 309 13.0 21.0 0.00 0.00 0.00 22 1007.0
20260503235523 73 323 14.0 23.0 0.00 0.00 0.00 20 1006.9
20260503235028 74 328 14.0 21.0 0.00 0.00 0.00 20 1007.0
20260503234640 74 349 12.0 21.0 0.00 0.00 0.00 21 1006.9
20260503234027 73 323 13.0 21.0 0.00 0.00 0.00 22 1007.1
20260503233524 73 307 11.0 20.0 0.00 0.00 0.00 21 1007.0
20260503233128 74 311 10.0 20.0 0.00 0.00 0.00 22 1007.2
20260503232531 74 343 14.0 21.0 0.00 0.00 0.00 20 1007.0
20260503232027 74 307 14.0 24.0 0.00 0.00 0.00 22 1007.1
20260503231624 73 320 16.0 24.0 0.00 0.00 0.00 21 1006.9
20260503231023 73 317 14.0 23.0 0.00 0.00 0.00 21 1007.2
20260503230522 73 329 14.0 25.0 0.00 0.00 0.00 20 1007.2
20260503230131 74 360 12.0 23.0 0.00 0.00 0.00 21 1007.0
20260503225527 74 328 11.0 20.0 0.00 0.00 0.00 22 1007.3
20260503225028 73 278 15.0 20.0 0.00 0.00 0.00 20 1007.4
20260503224659 74 325 12.0 22.0 0.00 0.00 0.00 20 1007.4
20260503224030 74 307 13.0 22.0 0.00 0.00 0.00 20 1007.6
20260503223540 74 301 14.0 26.0 0.00 0.00 0.00 21 1007.5
20260503223155 74 314 13.0 26.0 0.00 0.00 0.00 20 1007.6
20260503222524 73 309 11.0 20.0 0.00 0.00 0.00 20 1007.6
20260503222026 73 352 9.0 17.0 0.00 0.00 0.00 20 1007.7
20260503221645 73 335 12.0 21.0 0.00 0.00 0.00 21 1007.6
20260503221034 74 318 12.0 21.0 0.00 0.00 0.00 22 1007.7
20260503220524 73 300 12.0 20.0 0.00 0.00 0.00 22 1007.7
20260503220145 73 287 12.0 19.0 0.00 0.00 0.00 21 1007.8
20260503215539 73 325 12.0 24.0 0.00 0.00 0.00 22 1007.9
20260503215033 73 317 15.0 24.0 0.00 0.00 0.00 20 1007.9
20260503214653 73 279 11.0 18.0 0.00 0.00 0.00 21 1007.8
20260503214027 73 290 11.0 17.0 0.00 0.00 0.00 23 1008.0
20260503213527 73 281 11.0 23.0 0.00 0.00 0.00 23 1008.0
20260503213140 73 301 14.0 23.0 0.00 0.00 0.00 23 1008.2
20260503212539 73 300 9.0 15.0 0.00 0.00 0.00 22 1008.1
20260503212029 74 338 10.0 18.0 0.00 0.00 0.00 22 1008.3
20260503211603 73 313 10.0 20.0 0.00 0.00 0.00 23 1008.2
20260503211040 73 302 14.0 21.0 0.00 0.00 0.00 20 1008.6
20260503210527 73 275 12.0 21.0 0.00 0.00 0.00 21 1008.6
20260503210211 72 315 11.0 28.0 0.00 0.00 0.00 22 1008.6
20260503205533 72 314 14.0 28.0 0.00 0.00 0.00 22 1008.7
20260503205039 72 325 14.0 24.0 0.00 0.00 0.00 20 1008.9
20260503204653 72 278 11.0 16.0 0.00 0.00 0.00 21 1008.9
20260503204023 72 310 10.0 17.0 0.00 0.00 0.00 21 1008.8
20260503203527 71 337 5.0 20.0 0.00 0.00 0.00 23 1008.8
20260503203210 71 279 12.0 20.0 0.00 0.00 0.00 23 1008.8
20260503202523 72 297 12.0 17.0 0.00 0.00 0.00 22 1009.1
20260503202037 71 292 10.0 19.0 0.00 0.00 0.00 22 1009.1
20260503201703 71 282 12.0 21.0 0.00 0.00 0.00 24 1009.3
20260503201026 72 309 14.0 21.0 0.00 0.00 0.00 22 1009.2
20260503200533 72 284 12.0 23.0 0.00 0.00 0.00 22 1009.3
20260503200204 71 272 9.0 23.0 0.00 0.00 0.00 21 1009.2
20260503195524 71 306 12.0 20.0 0.00 0.00 0.00 21 1009.4
20260503195024 72 319 12.0 22.0 0.00 0.00 0.00 21 1009.4
20260503194638 72 311 13.0 24.0 0.00 0.00 0.00 20 1009.4
20260503194028 72 307 16.0 24.0 0.00 0.00 0.00 19 1009.3
20260503193537 71 290 11.0 26.0 0.00 0.00 0.00 21 1009.5
20260503193119 71 314 15.0 26.0 0.00 0.00 0.00 20 1009.5
20260503192532 72 318 10.0 21.0 0.00 0.00 0.00 20 1009.5
20260503192029 72 288 10.0 24.0 0.00 0.00 0.00 20 1009.5
20260503191709 72 305 16.0 25.0 0.00 0.00 0.00 21 1009.6
20260503191040 72 288 13.0 21.0 0.00 0.00 0.00 20 1009.6
20260503190531 72 328 11.0 21.0 0.00 0.00 0.00 21 1009.9
20260503190209 72 348 12.0 21.0 0.00 0.00 0.00 21 1009.7
20260503185534 71 254 12.0 19.0 0.00 0.00 0.00 20 1009.8
20260503185019 71 296 12.0 19.0 0.00 0.00 0.00 23 1009.9
20260503184704 71 304 9.0 21.0 0.00 0.00 0.00 22 1010.0
20260503184023 71 297 15.0 21.0 0.00 0.00 0.00 22 1010.1
20260503183523 70 336 11.0 22.0 0.00 0.00 0.00 23 1010.1
20260503183149 71 288 13.0 22.0 0.00 0.00 0.00 22 1010.2
20260503182538 71 301 14.0 20.0 0.00 0.00 0.00 21 1010.3
20260503182028 71 325 11.0 16.0 0.00 0.00 0.00 21 1010.2
20260503181700 70 317 7.0 21.0 0.00 0.00 0.00 22 1010.4
20260503181025 71 311 14.0 21.0 0.00 0.00 0.00 23 1010.3
20260503180530 70 347 7.0 17.0 0.00 0.00 0.00 22 1010.6
20260503180210 71 333 12.0 18.0 0.00 0.00 0.00 22 1010.8
20260503175523 71 325 13.0 18.0 0.00 0.00 0.00 23 1011.0
20260503175029 71 298 13.0 18.0 0.00 0.00 0.00 23 1011.0
20260503174627 70 309 9.0 14.0 0.00 0.00 0.00 25 1010.9
20260503174031 70 38 7.0 16.0 0.00 0.00 0.00 25 1011.0
20260503173525 70 291 10.0 16.0 0.00 0.00 0.00 26 1011.1
20260503173200 69 321 7.0 13.0 0.00 0.00 0.00 24 1011.1
20260503172540 69 317 8.0 13.0 0.00 0.00 0.00 24 1011.0
20260503172030 68 269 7.0 13.0 0.00 0.00 0.00 27 1011.2
20260503171710 68 315 4.0 13.0 0.00 0.00 0.00 26 1011.2
20260503171037 68 278 7.0 13.0 0.00 0.00 0.00 26 1011.2
20260503170523 69 342 6.0 11.0 0.00 0.00 0.00 27 1011.2
20260503170158 68 309 5.0 12.0 0.00 0.00 0.00 28 1011.4